STARLINK-4519 (53439 NORAD) Tracking and Keplerian Element Data

This shows tracking and keplerian element data for the satellite.

Feedback or suggestion? Click here.




ElementValue
Catalog53439
NameSTARLINK-4519
Epoch Orbit130
Epoch Day324.91667824
Epoch Year2022
RAAN112.1609
Inclination53.2151
Eccentricity0.000142
Argument of Perigee69.4905
Mean Anonmoly145.204
Mean Motion15.08852515
Decay Rate-0.00013136
L11 53439U 22097BD 22324.91667824 -.00013136 00000+0 -80846-3 0 9994
L22 53439 53.2151 112.1609 0001420 69.4905 145.2040 15.08852515 1303



Live tracking and technical data element details for STARLINK-4519 (NORAD 53439). STARLINK-4519 can be tracked NOW for your location showing map with azimuth and elevation plus other details from your city location.







IsCatalogInMostPopularTable: catalog: 53439, numindb: 11
Update: records affected: 1



GetName: 53439 STARLINK-4519

Hit Count: updated at: Thu, 08 Dec 2022 18:39:13 GMT